Вернуться в каталог

STARLINK-31640

АктивенСвязьVLEO
NORAD 59748·PAYLOAD·🇺🇸 United States

Запущен May 13, 2024 с Cape Canaveral Space Force Station

Loading…

Ближайшие Пролёты (ближайшие 24 часа)

TLE

СвежийSource: CelesTrak SupGP

Эпоха: Sep 15, 2026, 02:17 UTC

1 59748C 24090U   26258.09562500 -.00050190  00000+0 -18182-2 0  2584
2 59748  43.0023 193.8818 0001312 272.5134 199.0759 15.27598824    18

Отслеживайте STARLINK-31640 в реальном времени с AllMySat

Download on the App Store